Regional Weather Roundup
Issued by NWS San Angelo, TX

Home | Current Version | Previous Version | Text Only | Print | Product List | Glossary On
Versions: 1 2 3 4 5 6 7 8 9 10 11 12 13 14 15 16 17 18 19 20 21 22 23 24 25 26 27 28 29 30 31 32 33 34 35 36 37 38 39 40 41 42 43 44 45 46 47 48 49 50
000
ASUS44 KSJT 051258
RWRSJT
WEST CENTRAL TEXAS REGIONAL WEATHER ROUNDUP
NATIONAL WEATHER SERVICE SAN ANGELO TX
700 AM CST THU MAR 05 2015

NOTE: "FAIR" INDICATES FEW OR NO CLOUDS BELOW 12,000 FEET WITH NO
SIGNIFICANT WEATHER AND/OR OBSTRUCTIONS TO VISIBILITY.

TXZ049-054-064>066-071>073-076>078-098-099-113-114-127-128-139-140-
154-155-168>170-051400
...LOCATIONS ACROSS WEST CENTRAL TEXAS...

CITY           SKY/WX    TMP DP  RH WIND       PRES   REMARKS
SAN ANGELO     CLEAR     25  18  74 N10       30.53R WCI  15
ABILENE        CLEAR     20  17  88 N10       30.53R WCI   9
DYESS AFB      NOT AVBL
JUNCTION       CLOUDY    27  24  89 N18G26    30.46R WCI  14
SWEETWATER     NOT AVBL
BROWNWOOD      NOT AVBL
COLEMAN        NOT AVBL
SONORA         NOT AVBL
OZONA          NOT AVBL
BRADY          NOT AVBL
$$

TEXAS PANHANDLE/OKLAHOMA PANHANDLE

CITY           SKY/WX    TMP DP  RH WIND       PRES   REMARKS
AMARILLO       CLEAR     13  10  88 W6        30.45R WCI   4
BORGER         CLEAR     19  14  81 SW8       30.46R WCI   9
CANADIAN       NOT AVBL
DALHART        NOT AVBL
DUMAS          NOT AVBL
GUYMON         NOT AVBL
HEREFORD       NOT AVBL
PAMPA          NOT AVBL
PERRYTON       NOT AVBL
$$

SOUTHERN PANHANDLE/SOUTH PLAINS/ROLLING PLAINS

CITY           SKY/WX    TMP DP  RH WIND       PRES   REMARKS
LUBBOCK        NOT AVBL
SNYDER         NOT AVBL
CHILDRESS      PTCLDY    13  10  88 NW6       30.54R WCI   4
SEMINOLE       NOT AVBL
$$

PERMIAN BASIN

CITY           SKY/WX    TMP DP  RH WIND       PRES   REMARKS
MIDLAND        NOT AVBL
ODESSA         NOT AVBL
WINK           CLOUDY    28  17  63 N10       30.51R WCI  19
$$

FAR WEST/SOUTHWEST MOUNTAINS/TRANS PECOS

CITY           SKY/WX    TMP DP  RH WIND       PRES   REMARKS
ALPINE         NOT AVBL
DRYDEN           N/A     31  23  72 N17G24    30.49R WCI  19
EL PASO        PTCLDY    30  20  66 E7        30.36R WCI  23
FORT STOCKTON  CLOUDY    25  23  92 NE7       30.51R WCI  17
GUADALUPE PASS NOT AVBL
MARFA          NOT AVBL
PECOS          NOT AVBL
$$

DALLAS/FORT WORTH METROPLEX

CITY           SKY/WX    TMP DP  RH WIND       PRES   REMARKS
DFW AIRPORT    NOT AVBL
FTW MEACHAM    NOT AVBL
DAL-EXECUTIVE  NOT AVBL
GRAND PRAIRIE  NOT AVBL
ADDISON        NOT AVBL
MESQUITE       SUNNY     27  19  74 MISG      30.51
LANCASTER      NOT AVBL
$$

NORTH CENTRAL TEXAS

CITY           SKY/WX    TMP DP  RH WIND       PRES   REMARKS
SHRMAN/DENISON NOT AVBL
GAINESVILLE    NOT AVBL
BRIDGEPORT     NOT AVBL
DENTON         NOT AVBL
WAXAHACHIE     NOT AVBL
GRANBURY       NOT AVBL
$$

WESTERN NORTH TEXAS

CITY           SKY/WX    TMP DP  RH WIND       PRES   REMARKS
WICHITA FALLS  CLEAR     18  12  77 NW10      30.57R WCI   6
VERNON         NOT AVBL
BRECKENRIDGE   NOT AVBL
COMANCHE       NOT AVBL
$$

CENTRAL AND SOUTH CENTRAL TEXAS

CITY           SKY/WX    TMP DP  RH WIND       PRES   REMARKS
AUSTIN/BERGSTM CLOUDY    31  28  89 N24G38    30.41R WCI  17
WACO           PTCLDY    26  21  81 N18       30.49R WCI  13
HILLSBORO      NOT AVBL
TEMPLE         NOT AVBL
KILLEEN-GRAY   NOT AVBL
FORT HOOD      CLOUDY    27  25  93 N18G26    30.45R WCI  13
GEORGETOWN     CLOUDY    30  25  80 N18G29    30.44R WCI  18
LAGO VISTA     NOT AVBL
SAN MARCOS     CLOUDY    32  27  80 N25G36    30.41R WCI  19
NEW BRAUNFELS  CLOUDY    33  32  96 N23G31    30.38R WCI  21
RANDOLPH AFB   NOT AVBL
SAN ANTONIO    CLOUDY    33  27  78 N21G29    30.39R WCI  21
STINSON        NOT AVBL
PLEASANTON     NOT AVBL
LA GRANGE      NOT AVBL
GIDDINGS       NOT AVBL
$$

EAST TEXAS

CITY           SKY/WX    TMP DP  RH WIND       PRES   REMARKS
PARIS          NOT AVBL
CLARKSVILLE    NOT AVBL
TYLER          NOT AVBL
LONGVIEW       NOT AVBL
PALESTINE      NOT AVBL
NACOGDOCHES    NOT AVBL
$$

TEXAS HILL COUNTRY AND EDWARDS PLATEAU

CITY           SKY/WX    TMP DP  RH WIND       PRES   REMARKS
LLANO          NOT AVBL
HORSESHOE BAY  NOT AVBL
KERRVILLE      NOT AVBL
FREDERICKSBRG  NOT AVBL
ROCKSPRINGS    NOT AVBL
HONDO          CLOUDY    33  26  75 N22G31    30.42R WCI  21
UVALDE         NOT AVBL
DEL RIO        CLOUDY    35  25  66 NW15      30.51R WCI  25
$$

SOUTHEAST TEXAS

CITY           SKY/WX    TMP DP  RH WIND       PRES   REMARKS
COLLEGE STN    NOT AVBL
CALDWELL       NOT AVBL
CROCKETT       NOT AVBL
BRENHAM        NOT AVBL
HUNTSVILLE     NOT AVBL
CONROE         RAIN      37  34  87 N12G23    30.33R WCI  30
HOUSTON BUSH   NOT AVBL
HOUSTON HOBBY  NOT AVBL
PERLAND        CLOUDY    42  37  82 NE15G24   30.28R WCI  34
WHARTON        NOT AVBL
$$

THE UPPER TEXAS COAST

CITY           SKY/WX    TMP DP  RH WIND       PRES   REMARKS
ORANGE         NOT AVBL
PORT ARTHUR    LGT RAIN  39  36  89 N17G35    30.23R WCI  30
GALVESTON      LGT RAIN  43  40  89 N29G39    30.25R WCI  33
ANGLETON       NOT AVBL
BAY CITY       NOT AVBL
$$

TEXAS COASTAL BEND, RIO GRANDE PLAINS DEEP SOUTH TEXAS

CITY           SKY/WX    TMP DP  RH WIND       PRES   REMARKS
VICTORIA       CLOUDY    37  34  89 N23G30    30.31R WCI  26
BEEVILLE       NOT AVBL
ROCKPORT       NOT AVBL
PORT ARANSAS   NOT AVBL
PORT LAVACA    NOT AVBL
CORPUS CHRISTI CLOUDY    40  35  83 N24G33    30.32R WCI  29
KINGSVILLE NAS NOT AVBL
COTULLA        NOT AVBL
LAREDO         NOT AVBL
BROWNSVILLE    LGT RAIN  43  41  93 N25G35    30.22R WCI  33
PORT ISABEL    NOT AVBL
HEBBRONVILLE   NOT AVBL
MCALLEN        CLOUDY    45  39  79 N21G37    30.30R WCI  37
WESLACO        NOT AVBL
FALFURRIAS     NOT AVBL
EDINBURG       NOT AVBL
$$



USA.gov is the U.S. government's official web portal to all federal, state and local government web resources and services.